This is the latest recevied weather packets stored in our database for station/object OK1OBR-13. If no packets are shown the sender has not sent any weather packets the latest 1 day(s).
| Time | Temp. | Humidity | Pressure | Rain* | Wind** | Luminosity | Snow |
|---|---|---|---|---|---|---|---|
| 1778059502 | 16.67° C | 66% | 930.1 hPa | 0.25 mm | - | - | - |
| 1778059441 | 16.67° C | 65% | 930.1 hPa | 0.25 mm | - | - | - |
| 1778059321 | 16.11° C | 66% | 930 hPa | 0.25 mm | - | - | - |
| 1778059261 | 16.11° C | 66% | 930 hPa | 0.25 mm | - | - | - |
| 1778059201 | 15.56° C | 66% | 930 hPa | 0.25 mm | - | - | - |
| 1778059021 | 15.56° C | 66% | 930.3 hPa | 0.25 mm | - | - | - |
| 1778058901 | 16.11° C | 63% | 930 hPa | 0.25 mm | - | - | - |
| 1778058841 | 16.67° C | 64% | 930.1 hPa | 0.25 mm | - | - | - |
| 1778058782 | 16.67° C | 65% | 929.9 hPa | 0.25 mm | - | - | - |
| 1778058721 | 16.67° C | 65% | 930.1 hPa | 0.25 mm | - | - | - |
| 1778058661 | 16.67° C | 62% | 930.1 hPa | 0.25 mm | - | - | - |
| 1778058601 | 16.67° C | 63% | 930.1 hPa | 0.25 mm | - | - | - |
| 1778058541 | 16.67° C | 67% | 930.2 hPa | 0.25 mm | - | - | - |
| 1778058421 | 16.67° C | 65% | 930.2 hPa | 0.25 mm | - | - | - |
| 1778058361 | 16.67° C | 65% | 930.2 hPa | 0.25 mm | - | - | - |
| 1778058241 | 16.67° C | 64% | 930.2 hPa | 0.25 mm | - | - | - |
| 1778058181 | 16.67° C | 63% | 930.1 hPa | 0.25 mm | - | - | - |
| 1778058121 | 16.67° C | 62% | 930 hPa | 0.25 mm | - | - | - |
| 1778058062 | 16.67° C | 67% | 930.1 hPa | 0.25 mm | - | - | - |
| 1778057881 | 16.11° C | 67% | 930.1 hPa | 0.25 mm | - | - | - |
| 1778057821 | 15.56° C | 67% | 930.2 hPa | 0.25 mm | - | - | - |
| 1778057701 | 15.56° C | 69% | 930.4 hPa | 0.25 mm | - | - | - |
| 1778057642 | 15.56° C | 68% | 930.2 hPa | 0.25 mm | - | - | - |
| 1778057581 | 15.56° C | 69% | 930.2 hPa | 0.25 mm | - | - | - |
| 1778057521 | 15.56° C | 70% | 930 hPa | 0.25 mm | - | - | - |
* Rain since midnight (hover to see other rain measurements)
** Current wind speed in m/s (hover to see current wind gust speed)